Location: Bishopstone
(51.0167°N, 1.9000°W)
Time: 04:11:56
(UTC+00:00)

Cosmos 2297 Rocket - Pass Details

Date: 16 September 2019
Orbit: 841 x 842 km, 71.0° (Epoch: 17 October)

Event Time Altitude Azimuth Distance (km) Brightness Sun altitude
Exits shadow 19:48:38 19° 131° (SE) 1,889 3.4 -14.3°
Maximum altitude 19:50:36 23° 102° (ESE) 1,712 3.2 -14.6°
Drops below altitude 10° 19:54:57 10° 52° (NE) 2,470 4.4 -15.2°
Sets 19:57:51 0° 38° (NE) 3,410 5.2 -15.6°
